FW0880 Weather Reports


time (UTC)temp
C
wind
direction
speed
KPH
gust
KPH
rain 1hr
cm
rain 24hr
cm
rain mn
cm
humidity
%
barometer
mb
20260901125007 25 355 0.0 0.0 0.00 2.69 0.00 90 1009.9
20260901124507 25 355 0.0 0.0 0.00 2.69 0.00 90 1010.0
20260901124015 25 355 0.0 4.8 0.00 2.69 0.00 90 1010.0
20260901123516 25 355 0.0 4.8 0.00 2.69 0.00 90 1010.0
20260901123017 25 355 1.6 4.8 0.00 2.69 0.00 90 1010.1
20260901122517 25 355 1.6 4.8 0.00 2.69 0.00 90 1010.0
20260901122019 25 355 0.0 4.8 0.00 2.69 0.00 90 1010.1
20260901121520 25 355 1.6 4.8 0.00 2.69 0.00 90 1010.0
20260901121008 25 355 0.0 3.2 0.00 2.69 0.00 90 1009.9
20260901120509 25 355 0.0 4.8 0.00 2.69 0.00 90 1009.8
20260901120016 25 355 1.6 4.8 0.00 2.69 0.00 90 1009.8
20260901115518 25 348 3.2 4.8 0.00 2.77 0.00 90 1009.8
20260901115016 25 347 1.6 4.8 0.00 2.77 0.00 90 1009.8
20260901114515 25 346 0.0 3.2 0.00 2.77 0.00 90 1009.9
20260901114026 25 346 1.6 6.4 0.00 2.77 0.00 90 1009.9
20260901113522 25 355 3.2 6.4 0.00 2.77 0.00 90 1009.8
20260901113007 25 360 1.6 4.8 0.00 2.77 0.00 90 1009.8
20260901112507 25 5 1.6 4.8 0.00 2.77 0.00 90 1009.8
20260901112011 25 5 0.0 3.2 0.00 2.77 0.00 90 1009.7
20260901111511 25 5 0.0 3.2 0.00 2.77 0.00 90 1009.7
20260901111024 25 5 0.0 0.0 0.00 2.77 0.00 90 1009.6
20260901110519 25 5 0.0 0.0 0.00 2.77 0.00 90 1009.6
20260901110007 25 5 0.0 0.0 0.00 2.77 0.00 90 1009.7
20260901105504 25 5 0.0 1.6 0.00 2.84 0.00 90 1009.7
20260901105012 25 5 0.0 3.2 0.00 2.84 0.00 90 1009.7
20260901104509 25 5 0.0 4.8 0.00 2.84 0.00 90 1009.7
20260901104014 25 5 0.0 4.8 0.00 2.84 0.00 90 1009.8
20260901103514 25 5 0.0 3.2 0.00 2.84 0.00 90 1009.8
20260901103022 25 5 0.0 4.8 0.00 2.84 0.00 90 1009.9
20260901102526 25 5 1.6 4.8 0.00 2.84 0.00 90 1009.9
20260901102007 25 5 1.6 4.8 0.00 2.84 0.00 90 1010.0
20260901101506 25 5 1.6 3.2 0.00 2.84 0.00 90 1010.0
20260901101018 25 5 0.0 3.2 0.00 2.84 0.00 90 1010.0
20260901100511 25 5 0.0 0.0 0.00 2.84 0.00 90 1010.1
20260901100021 25 5 0.0 4.8 0.00 2.84 0.00 90 1010.2
20260901095520 25 5 0.0 4.8 0.00 2.97 0.00 90 1010.2
20260901095028 25 5 3.2 4.8 0.00 2.97 0.00 91 1010.2
20260901094527 25 13 0.0 1.6 0.00 2.97 0.00 91 1010.3
20260901094008 25 13 0.0 1.6 0.00 2.97 0.00 91 1010.3
20260901093507 25 13 0.0 1.6 0.00 2.97 0.00 91 1010.4
20260901093018 25 13 0.0 4.8 0.00 2.97 0.00 90 1010.4
20260901092517 25 13 1.6 4.8 0.00 2.97 0.00 91 1010.4
20260901092020 25 9 0.0 1.6 0.00 2.97 0.00 91 1010.4
20260901091524 25 5 0.0 3.2 0.00 2.97 0.00 91 1010.6
20260901091023 25 5 0.0 8.0 0.00 2.97 0.00 91 1010.6
20260901090523 25 5 3.2 8.0 0.00 2.97 0.00 91 1010.6
20260901090014 25 355 4.8 8.0 0.00 2.97 0.00 91 1010.7
20260901085517 25 64 0.0 3.2 0.00 2.97 0.00 91 1010.7
20260901085017 25 64 0.0 4.8 0.00 2.97 0.00 91 1010.6
20260901084516 25 67 0.0 4.8 0.00 2.97 0.00 91 1010.7
20260901084019 25 67 1.6 4.8 0.00 2.97 0.00 91 1010.6
20260901083518 25 35 0.0 4.8 0.00 2.97 0.00 91 1010.7
20260901083025 25 36 0.0 4.8 0.00 2.97 0.00 91 1010.9
20260901082524 25 49 3.2 4.8 0.00 2.97 0.00 91 1011.0
20260901082008 25 41 1.6 4.8 0.00 2.97 0.00 91 1011.1
20260901081509 25 5 0.0 4.8 0.00 2.97 0.00 91 1011.2
20260901081011 25 5 0.0 4.8 0.00 2.97 0.00 91 1011.2
20260901080510 25 5 1.6 4.8 0.00 2.97 0.00 91 1011.3
20260901080017 25 360 0.0 4.8 0.00 2.97 0.00 91 1011.4
20260901075517 25 360 0.0 4.8 0.00 2.97 0.00 91 1011.5
20260901075023 25 360 1.6 4.8 0.00 2.97 0.00 91 1011.4
20260901074522 25 5 0.0 6.4 0.00 2.97 0.00 91 1011.3
20260901074004 25 38 1.6 6.4 0.00 2.97 0.00 91 1011.3
20260901073504 25 18 3.2 6.4 0.00 2.97 0.00 91 1011.2
20260901073018 25 350 1.6 6.4 0.00 2.97 0.00 91 1011.2
20260901072510 25 348 3.2 6.4 0.00 2.97 0.00 91 1011.2
20260901072017 25 331 0.0 3.2 0.00 2.97 0.00 91 1011.3
20260901071517 25 331 0.0 3.2 0.00 2.97 0.00 91 1011.2
20260901071024 25 331 0.0 1.6 0.00 2.97 0.00 91 1011.2
20260901070521 25 331 0.0 4.8 0.00 2.97 0.00 91 1011.2
20260901070007 25 331 0.0 6.4 0.00 2.97 0.00 91 1011.1
20260901065507 25 355 1.6 6.4 0.00 3.00 0.00 91 1011.0
20260901065013 25 17 1.6 8.0 0.00 3.00 0.00 91 1011.0
20260901064513 25 355 3.2 6.4 0.00 3.00 0.00 91 1011.0
20260901064017 25 342 3.2 6.4 0.00 3.00 0.00 91 1011.0
20260901063516 25 345 1.6 6.4 0.00 3.00 0.00 91 1010.9
20260901063020 25 335 1.6 6.4 0.00 3.00 0.00 91 1010.9
20260901062520 25 341 3.2 6.4 0.00 3.00 0.00 90 1011.0
20260901062008 25 327 3.2 8.0 0.00 3.00 0.00 91 1011.0
20260901061507 25 342 3.2 8.0 0.00 3.00 0.00 91 1011.0
20260901061012 25 355 1.6 6.4 0.00 3.00 0.00 90 1011.0
20260901060514 25 340 3.2 6.4 0.00 3.00 0.00 90 1011.0
20260901060016 25 339 1.6 8.0 0.00 3.00 0.00 90 1011.0
20260901055516 25 360 3.2 8.0 0.00 3.00 3.00 90 1011.1
20260901055024 25 355 3.2 6.4 0.00 3.00 3.00 90 1011.2
20260901054524 25 44 1.6 8.0 0.00 3.00 3.00 90 1011.2
20260901054004 25 323 4.8 8.0 0.00 3.00 3.00 90 1011.3
20260901053506 25 350 1.6 6.4 0.00 3.00 3.00 90 1011.3
20260901053014 25 348 3.2 6.4 0.00 3.00 3.00 90 1011.3
20260901052509 25 71 0.0 4.8 0.00 3.00 3.00 90 1011.4
20260901052019 25 71 1.6 3.2 0.00 3.00 3.00 90 1011.5
20260901051517 25 71 1.6 3.2 0.00 3.00 3.00 90 1011.6
20260901051022 25 71 0.0 8.0 0.03 3.00 3.00 90 1011.6
20260901050520 25 71 1.6 8.0 0.03 3.00 3.00 89 1011.8
20260901050021 25 39 3.2 9.7 0.03 3.00 3.00 89 1011.9
20260901045520 25 22 1.6 8.0 0.05 3.00 3.00 90 1011.9
20260901045017 25 29 1.6 6.4 0.18 3.00 3.00 90 1011.8
20260901044517 25 64 1.6 4.8 0.36 3.00 3.00 90 1011.9
20260901044024 25 64 1.6 4.8 0.71 3.00 3.00 89 1011.9
20260901043523 25 69 0.0 4.8 1.60 3.00 3.00 89 1012.0
20260901043008 25 69 1.6 6.4 2.29 3.00 3.00 89 1011.9
20260901042507 25 59 3.2 6.4 2.69 3.00 3.00 88 1011.8
20260901042011 25 63 1.6 11.3 2.69 3.00 3.00 88 1011.7
20260901041511 25 50 1.6 11.3 2.69 3.00 3.00 87 1011.5
20260901041020 25 78 3.2 12.9 2.67 2.97 2.97 87 1011.6
20260901040519 25 59 4.8 14.5 2.67 2.97 2.97 86 1011.8
20260901040028 25 118 6.4 14.5 2.64 2.97 2.97 86 1011.8
20260901035526 25 97 4.8 11.3 2.62 2.92 2.92 84 1011.7
20260901035007 26 40 3.2 8.0 2.49 2.79 2.79 83 1011.6
20260901034511 26 22 3.2 14.5 2.29 2.59 2.59 81 1011.9
20260901034018 27 91 3.2 25.7 1.83 2.16 2.16 80 1012.2
20260901033516 27 159 11.3 32.2 0.97 1.27 1.27 77 1012.5
20260901033035 28 164 16.1 40.2 0.23 0.56 0.56 75 1011.9
20260901032518 30 169 14.5 40.2 0.00 0.33 0.33 72 1010.9
20260901032022 31 219 6.4 9.7 0.00 0.33 0.33 77 1010.8
20260901031526 31 228 4.8 9.7 0.00 0.33 0.33 77 1010.6
20260901031014 31 197 6.4 9.7 0.00 0.33 0.33 77 1010.5
20260901030518 31 189 1.6 8.0 0.00 0.33 0.33 77 1010.5
20260901030016 31 165 1.6 8.0 0.00 0.33 0.33 78 1010.5
20260901025516 31 163 3.2 8.0 0.00 0.33 0.33 77 1010.4
20260901025017 31 187 3.2 8.0 0.00 0.33 0.33 77 1010.3
20260901024519 31 174 0.0 9.7 0.00 0.33 0.33 76 1010.1
20260901024022 31 204 4.8 9.7 0.00 0.33 0.33 76 1010.1
20260901023519 31 217 1.6 11.3 0.00 0.33 0.33 75 1010.1
20260901023008 31 193 3.2 8.0 0.00 0.33 0.33 75 1010.0
20260901022505 31 200 1.6 6.4 0.00 0.33 0.33 75 1009.8
20260901022009 31 224 3.2 6.4 0.00 0.33 0.33 75 1009.7
20260901021510 31 244 1.6 6.4 0.00 0.33 0.33 75 1009.4
20260901021014 31 239 1.6 8.0 0.00 0.33 0.33 75 1009.3
20260901020514 31 294 3.2 8.0 0.00 0.33 0.33 75 1009.2
20260901020022 31 269 0.0 8.0 0.00 0.33 0.33 75 1009.2
20260901015523 31 254 3.2 6.4 0.00 0.33 0.33 75 1009.2
20260901015006 31 229 3.2 9.7 0.00 0.33 0.33 75 1008.9
20260901014506 31 227 1.6 8.0 0.00 0.33 0.33 75 1008.8
20260901014011 31 343 3.2 8.0 0.00 0.33 0.33 75 1008.7
20260901013511 31 267 4.8 9.7 0.00 0.33 0.33 75 1008.9
20260901013020 31 175 1.6 6.4 0.00 0.33 0.33 75 1008.9
20260901012518 31 169 4.8 8.0 0.00 0.33 0.33 75 1008.9
20260901012023 31 229 1.6 8.0 0.00 0.33 0.33 75 1008.7
20260901011523 31 238 3.2 8.0 0.00 0.33 0.33 75 1008.6
20260901011008 31 221 3.2 9.7 0.00 0.33 0.33 75 1008.5
20260901010509 31 215 3.2 8.0 0.00 0.33 0.33 74 1008.5
20260901010017 31 269 3.2 11.3 0.00 0.33 0.33 75 1008.4
20260901005517 31 217 4.8 11.3 0.00 0.33 0.33 74 1008.4
20260901005024 31 285 3.2 11.3 0.00 0.33 0.33 75 1008.4
20260901004520 31 207 3.2 11.3 0.00 0.33 0.33 75 1008.4
20260901004006 31 309 3.2 9.7 0.00 0.33 0.33 75 1008.3
20260901003504 31 244 3.2 11.3 0.00 0.33 0.33 75 1008.2
20260901003013 31 252 4.8 11.3 0.00 0.33 0.33 74 1008.0
20260901002515 31 231 3.2 12.9 0.00 0.33 0.33 75 1007.9
20260901002016 31 228 6.4 12.9 0.00 0.33 0.33 74 1008.0
20260901001523 31 182 3.2 9.7 0.00 0.33 0.33 75 1007.9
20260901001019 32 211 4.8 9.7 0.00 0.33 0.33 75 1007.9
20260901000522 32 263 3.2 11.3 0.00 0.33 0.33 75 1007.7
20260901000008 32 244 3.2 12.9 0.00 0.33 0.33 75 1007.7
20260831235509 31 215 3.2 12.9 0.00 0.33 0.33 73 1007.9
20260831235011 32 257 3.2 11.3 0.00 0.33 0.33 74 1007.8
20260831234526 32 213 3.2 14.5 0.00 0.33 0.33 74 1007.8
20260831234017 32 198 4.8 14.5 0.00 0.33 0.33 73 1007.8
20260831233617 32 222 3.2 11.3 0.00 0.33 0.33 72 1007.8
20260831233017 32 252 3.2 14.5 0.00 0.33 0.33 72 1007.9
20260831232520 32 205 4.8 14.5 0.00 0.33 0.33 71 1007.9
20260831232023 32 251 6.4 14.5 0.00 0.33 0.33 70 1007.8
20260831231522 32 270 4.8 14.5 0.00 0.33 0.33 70 1007.8
20260831231008 32 256 3.2 19.3 0.00 0.33 0.33 70 1007.9
20260831230510 32 199 3.2 19.3 0.00 0.33 0.33 70 1007.9
20260831230013 33 279 4.8 19.3 0.00 0.33 0.33 69 1007.9
20260831225512 33 244 4.8 12.9 0.00 0.33 0.33 69 1007.9
20260831225021 33 253 4.8 16.1 0.00 0.33 0.33 69 1007.8
20260831224640 33 246 3.2 16.1 0.00 0.33 0.33 68 1007.9
20260831224025 33 247 3.2 12.9 0.00 0.33 0.33 68 1007.9
20260831223523 33 251 4.8 14.5 0.00 0.33 0.33 69 1007.9
20260831223006 33 261 4.8 14.5 0.00 0.33 0.33 68 1007.9
20260831222506 33 249 4.8 14.5 0.00 0.33 0.33 69 1008.0
20260831222018 33 272 8.0 14.5 0.00 0.33 0.33 70 1008.0
20260831221523 33 260 8.0 19.3 0.00 0.33 0.33 70 1008.0
20260831221016 33 267 6.4 16.1 0.00 0.33 0.33 70 1008.0
20260831220517 33 267 4.8 14.5 0.00 0.33 0.33 71 1008.0
20260831220027 33 218 6.4 16.1 0.00 0.33 0.33 71 1008.0
20260831215519 33 250 6.4 16.1 0.00 0.33 0.33 71 1008.0
20260831215028 33 246 6.4 19.3 0.00 0.33 0.33 70 1008.1
20260831214527 33 308 4.8 19.3 0.00 0.33 0.33 71 1008.2
20260831214008 33 197 4.8 14.5 0.00 0.33 0.33 70 1008.2
20260831213507 33 245 6.4 14.5 0.00 0.33 0.33 69 1008.3
20260831213030 34 349 3.2 12.9 0.00 0.33 0.33 69 1008.3
20260831212513 34 250 6.4 12.9 0.00 0.33 0.33 69 1008.3
20260831212020 33 303 1.6 9.7 0.00 0.33 0.33 69 1008.4
20260831211520 33 222 4.8 14.5 0.00 0.33 0.33 67 1008.4
20260831211026 33 261 8.0 14.5 0.00 0.33 0.33 70 1008.5
20260831210524 33 248 8.0 14.5 0.00 0.33 0.33 69 1008.5
20260831210009 34 322 4.8 14.5 0.00 0.33 0.33 68 1008.5
20260831205508 33 217 6.4 14.5 0.00 0.33 0.33 68 1008.5
20260831205016 33 198 4.8 12.9 0.00 0.33 0.33 67 1008.6
20260831204512 33 252 4.8 14.5 0.00 0.33 0.33 65 1008.8
20260831204018 33 262 3.2 14.5 0.00 0.33 0.33 63 1009.0
20260831203517 33 343 3.2 9.7 0.00 0.33 0.33 63 1009.2
20260831203022 33 167 3.2 12.9 0.00 0.33 0.33 63 1009.3
20260831202517 33 261 6.4 12.9 0.00 0.33 0.33 63 1009.5
20260831202020 33 176 8.0 14.5 0.00 0.33 0.33 62 1009.6
20260831201520 33 223 8.0 14.5 0.00 0.33 0.33 61 1009.7
20260831201012 33 234 6.4 14.5 0.00 0.33 0.33 61 1009.8
20260831200511 33 238 6.4 14.5 0.00 0.33 0.33 61 1009.8
20260831200014 33 275 6.4 12.9 0.00 0.33 0.33 60 1009.9
20260831195514 33 174 6.4 12.9 0.00 0.33 0.33 60 1009.9
20260831195019 33 200 6.4 12.9 0.00 0.33 0.33 59 1010.0
20260831194516 33 277 8.0 17.7 0.00 0.33 0.33 59 1010.1
20260831194023 33 269 9.7 17.7 0.00 0.33 0.33 60 1010.1
20260831193523 33 257 6.4 14.5 0.00 0.33 0.33 60 1010.1
20260831193009 33 207 6.4 16.1 0.00 0.33 0.33 59 1010.1
20260831192506 33 268 6.4 16.1 0.00 0.33 0.33 58 1010.2
20260831192010 33 260 6.4 14.5 0.00 0.33 0.33 58 1010.1
20260831191510 33 211 9.7 14.5 0.00 0.33 0.33 57 1010.1
20260831191022 34 217 4.8 9.7 0.00 0.33 0.33 56 1010.0
20260831190520 34 263 4.8 11.3 0.00 0.33 0.33 57 1010.0
20260831190008 33 246 3.2 12.9 0.00 0.33 0.33 57 1010.0
20260831185504 34 249 4.8 12.9 0.00 0.33 0.33 55 1010.0
20260831185012 33 313 3.2 12.9 0.00 0.33 0.33 58 1010.0
20260831184509 33 246 3.2 12.9 0.00 0.33 0.33 57 1010.1
20260831184016 33 282 3.2 9.7 0.00 0.33 0.33 57 1010.1
20260831183517 33 209 1.6 12.9 0.00 0.33 0.33 60 1010.2
20260831183018 32 204 3.2 12.9 0.00 0.33 0.33 60 1010.4
20260831182519 32 190 4.8 11.3 0.00 0.33 0.33 59 1010.6
20260831182024 33 240 6.4 9.7 0.00 0.33 0.33 61 1010.7
20260831181526 33 331 1.6 6.4 0.00 0.33 0.33 60 1010.8
20260831181011 32 236 1.6 6.4 0.00 0.33 0.33 64 1010.9
20260831180510 32 272 1.6 8.0 0.00 0.33 0.33 66 1011.0
20260831180018 31 255 3.2 8.0 0.00 0.33 0.33 68 1011.0
20260831175516 31 221 3.2 6.4 0.00 0.33 0.33 66 1011.0
20260831175018 32 227 1.6 8.0 0.00 0.33 0.33 67 1011.1
20260831174518 32 242 3.2 8.0 0.00 0.33 0.33 69 1011.0
20260831174022 31 263 3.2 12.9 0.00 0.33 0.33 70 1011.1
20260831173518 32 265 4.8 8.0 0.00 0.33 0.33 68 1011.2
20260831173024 32 247 1.6 9.7 0.00 0.33 0.33 69 1011.2
20260831172527 32 327 1.6 6.4 0.00 0.33 0.33 67 1011.3
20260831172024 32 343 1.6 6.4 0.00 0.33 0.33 68 1011.3
20260831171524 32 340 3.2 6.4 0.00 0.33 0.33 69 1011.3
20260831171012 31 68 1.6 4.8 0.00 0.33 0.33 69 1011.4
20260831170509 32 5 1.6 6.4 0.00 0.33 0.33 70 1011.4
20260831170032 31 5 3.2 6.4 0.00 0.33 0.33 71 1011.5
20260831165619 31 307 1.6 4.8 0.00 0.33 0.33 71 1011.4
20260831165023 31 317 0.0 8.0 0.00 0.33 0.33 72 1011.4
20260831164523 30 328 1.6 8.0 0.00 0.33 0.33 74 1011.5
20260831164048 30 15 1.6 6.4 0.00 0.33 0.33 74 1011.5
20260831163546 30 78 3.2 6.4 0.00 0.33 0.33 73 1011.4
20260831163124 30 92 0.0 4.8 0.00 0.33 0.33 73 1011.4
20260831162512 30 117 1.6 4.8 0.00 0.33 0.33 75 1011.5
20260831162016 29 129 1.6 4.8 0.00 0.33 0.33 75 1011.6
20260831161516 29 128 0.0 4.8 0.00 0.33 0.33 77 1011.7
20260831161021 29 50 0.0 3.2 0.00 0.33 0.33 77 1011.7
20260831160519 28 50 0.0 3.2 0.00 0.33 0.33 78 1011.7
20260831160039 28 51 0.0 4.8 0.00 0.33 0.33 78 1011.8
20260831155523 28 48 1.6 4.8 0.00 0.33 0.33 78 1011.8
20260831155012 28 88 1.6 3.2 0.00 0.33 0.33 78 1011.8
20260831154511 28 30 0.0 3.2 0.00 0.33 0.33 79 1011.8
20260831154016 28 30 0.0 4.8 0.00 0.33 0.33 78 1011.7
20260831153514 28 19 0.0 4.8 0.00 0.33 0.33 80 1011.6
20260831153043 28 275 0.0 0.0 0.00 0.33 0.33 79 1011.7
20260831152517 28 274 0.0 0.0 0.00 0.33 0.33 80 1011.7
20260831152022 28 274 0.0 1.6 0.00 0.33 0.33 80 1011.6
20260831151521 28 274 0.0 4.8 0.00 0.33 0.33 81 1011.5
20260831151006 27 274 0.0 4.8 0.00 0.33 0.33 81 1011.4
20260831150505 27 251 0.0 6.4 0.00 0.33 0.33 82 1011.4
20260831150012 26 251 1.6 6.4 0.00 0.33 0.33 86 1011.4
20260831145511 26 161 0.0 1.6 0.00 0.33 0.33 86 1011.3
20260831145022 26 161 0.0 8.0 0.00 0.33 0.33 87 1011.3
20260831144518 26 161 0.0 9.7 0.00 0.33 0.33 87 1011.3
20260831144018 26 162 4.8 9.7 0.00 0.33 0.33 87 1011.3
20260831143517 26 177 1.6 8.0 0.00 0.33 0.33 88 1011.3
20260831143019 26 177 1.6 8.0 0.00 0.33 0.33 88 1011.3
20260831142518 26 208 3.2 8.0 0.00 0.33 0.33 88 1011.2
20260831142008 26 23 0.0 3.2 0.00 0.33 0.33 88 1011.2
20260831141517 26 24 1.6 4.8 0.00 0.33 0.33 89 1011.0
20260831141012 25 25 0.0 4.8 0.03 0.33 0.33 89 1010.9
20260831140511 25 20 1.6 4.8 0.03 0.33 0.33 88 1010.8
20260831140018 25 38 1.6 4.8 0.03 0.33 0.33 88 1010.8
20260831135517 25 40 0.0 0.0 0.03 0.33 0.33 89 1010.8
20260831135019 25 40 0.0 0.0 0.03 0.33 0.33 89 1010.8
20260831134518 25 40 0.0 0.0 0.03 0.33 0.33 89 1010.9
20260831134025 25 40 0.0 0.0 0.03 0.33 0.33 89 1010.8
20260831133523 25 40 0.0 0.0 0.03 0.33 0.33 89 1010.9
20260831133008 25 40 0.0 0.0 0.03 0.33 0.33 89 1010.8
20260831132511 25 40 0.0 0.0 0.03 0.33 0.33 89 1010.8
20260831132013 25 40 0.0 0.0 0.03 0.33 0.33 89 1010.9
20260831131512 25 40 0.0 0.0 0.03 0.33 0.33 89 1010.9
20260831131022 25 40 0.0 0.0 0.00 0.30 0.30 89 1010.8
20260831130519 25 37 0.0 0.0 0.00 0.30 0.30 89 1010.9
20260831130006 25 35 0.0 1.6 0.00 0.30 0.30 88 1010.9
20260831125506 25 34 0.0 1.6 0.03 0.30 0.30 88 1010.8